Regional Weather Roundup
Issued by NWS Portland, ME

Home | Current Version | Previous Version | Text Only | Print | Product List | Glossary On
Versions: 1 2 3 4 5 6 7 8 9 10 11 12 13 14 15 16 17 18 19 20 21 22 23 24 25 26 27 28 29 30 31 32 33 34 35 36 37 38 39 40 41 42 43 44 45 46 47 48 49 50
000
ASUS41 KGYX 130310
RWRGYX
WEATHER ROUNDUP FOR MAINE AND NEW HAMPSHIRE
NATIONAL WEATHER SERVICE GRAY ME
1000 PM EST TUE DEC 12 2017

MEZ002-005-006-010-012-015-018-020-021-024-026-027-029-130400-
MAINE

CITY           SKY/WX    TMP DP  RH WIND       PRES   REMARKS
PORTLAND       CLOUDY    30  29  96 W14G24    29.25F WCI  19
SANFORD        FLURRIES  28  27  93 NW5       29.25F
BAR HARBOR     LGT RAIN  41  41 100 N3        29.25F FOG
WISCASSET      CLOUDY    34  34 100 CALM      29.24F FOG
ROCKLAND       CLOUDY    48  46  93 SE14G22   29.22F
FRYEBURG       LGT SNOW  27  27 100 CALM      29.26F FOG
LEWISTONAUBURN CLOUDY    28  26  92 NW7       29.25F
AUGUSTA        CLOUDY    29  28  96 VRB7      29.23F
WATERVILLE     FLURRIES  30  29  96 NE10      29.18F
BANGOR         FRZ RAIN  32  30  92 N9        29.27F FOG
GREENVILLE       N/A     30  30 100 E17       29.20F WCI  18
MILLINOCKET    FRZ RAIN  27  25  92 N8        29.33F FOG
HOULTON        FRZ RAIN  30  29  96 E12G22    29.39F FOG
PRESQUE ISLE   LGT SNOW  27  25  93 NE9       29.44F VSB 1
FRENCHVILLE    LGT SNOW  21  19  92 NE17G26   29.44F VSB 3/4 WCI   7
CARIBOU        LGT SNOW  28  25  88 E14       29.43F FOG     WCI  17
$$

NHZ002-005-008-009-011-012-014-130400-
NEW HAMPSHIRE

CITY           SKY/WX    TMP DP  RH WIND       PRES   REMARKS
PORTSMOUTH     CLOUDY    31  29  94 CALM      29.25F
ROCHESTER      CLOUDY    29  28  96 NW9       29.25S
NASHUA         CLOUDY    30  30 100 NW3       29.30R
MANCHESTER     CLOUDY    30  27  88 NW3       29.29R
CONCORD        CLOUDY    28  25  88 N5        29.29F
LACONIA        CLOUDY    27  25  92 SW3       29.27F
PLYMOUTH       CLOUDY    28  27  95 CALM      29.27F
BERLIN         LGT SNOW  24  23  96 CALM      29.26F VSB 3/4
WHITEFIELD     LGT SNOW  26  24  92 CALM      29.27F FOG
JAFFREY        CLOUDY    32  29  88 W7        29.30R
KEENE          MIX PCPN  30  29  96 E3        29.33R
LEBANON        CLOUDY    28  26  92 S3        29.30F
MT WASHINGTON  SNOW      18  18 100 SW17G26     N/A  VSB 1/16WCI   2
$$

VTZ005-007-008-130400-
VERMONT

CITY           SKY/WX    TMP DP  RH WIND       PRES   REMARKS
ST JOHNSBURY     N/A     28  28 100 MISG      29.28F
MONTPELIER     FLURRIES  26  24  92 NW13G28   29.33F WCI  15
BURLINGTON     LGT SNOW  25  21  85 N9        29.40S FOG
$$

MAZ007-012-024-CTZ003-RIZ002-NYZ038-NYZ072-130400-
SOUTHERN NEW ENGLAND AND NY

CITY           SKY/WX    TMP DP  RH WIND       PRES   REMARKS
BOSTON         MOCLDY    35  33  92 W12       29.27F
WORCESTER      CLOUDY    32  28  85 W22G28    29.27S WCI  19
NANTUCKET      CLOUDY    46  45  96 W15       29.26F
PROVIDENCE     CLOUDY    38  35  89 NW9       29.32S
HARTFORD       MOCLDY    31  21  66 NW10G21   29.42R
ALBANY         CLOUDY    26  12  55 W29G40    29.47F WCI  10
NEW YORK CITY  PTCLDY    35  23  61 NW23G31   29.42F
$$

ANZ081-ANZ082-ANZ150-NHZ014-MEZ023>029-130400-
COASTAL MARINE OBSERVATIONS

STATION/POSITION TIME  TEMP    WIND        PRES    WAVE
                       AIR SEA DIR/SP/G            HT/PER
                 (UTC) (F)     (DEG/KT/KT) (MB)    (FT/S)
MOUNT DESERT ROC 0300   51     140/ 20/ 24  990.8F
MATINICUS ROCK   0200   50     130/ 29/ 31  989.6F
ISLE OF SHOALS   0200   33     320/ 16/ 18  990.1F
JEFFREYS LEDGE   0236      47                N/A     5/ 6
GEORGES BANK BUO 0150   58 52               993.3    7/ 7
$$

.............KEY..............
   WCI - WIND CHILL
   TC  - TEMPERATURE IN CELSIUS
   VSB - VISIBILITY IN MILES
   HX  - HEAT INDEX
   FAIR- INDICATES FEW OR NO CLOUDS BELOW 12,000 FT, WITH NO
         SIGNIFICANT WEATHER AND/OR OBSTRUCTIONS TO VISIBILITY.






USA.gov is the U.S. government's official web portal to all federal, state and local government web resources and services.